LVMSA SAMI-SAMR

Flight info

Callsign LVMSA
Flight time 0h 39m
Altitude 4000
Route DCT DOZ185065 DCT
Aircraft BE36/L-S/C

Departure

Time 2026-05-08 14:29
Airport Aeroclub San Martín (SAMI)

Arrival

Time 2026-05-08 15:08
Airport Suboficial Ay Santiago Germano Airport (SAMR)
Time Latitude Longitude Altitude Speed Heading
2026-05-08 14:17 -33.06737 -68.51508 2176 ft 0 kts 310°
2026-05-08 14:21 -33.06728 -68.51516 2176 ft 5 kts 339°
2026-05-08 14:21 -33.06689 -68.51469 2175 ft 12 kts 71°
2026-05-08 14:22 -33.06659 -68.51347 2175 ft 17 kts 73°
2026-05-08 14:22 -33.06625 -68.51204 2175 ft 10 kts 76°
2026-05-08 14:22 -33.06624 -68.51200 2175 ft 0 kts 72°
2026-05-08 14:27 -33.06618 -68.51182 2175 ft 6 kts 68°
2026-05-08 14:27 -33.06599 -68.51108 2175 ft 12 kts 104°
2026-05-08 14:27 -33.06690 -68.51131 2175 ft 17 kts 205°
2026-05-08 14:27 -33.06788 -68.51183 2177 ft 10 kts 206°
2026-05-08 14:28 -33.06742 -68.51173 2176 ft 13 kts 32°
2026-05-08 14:28 -33.06510 -68.51017 2172 ft 65 kts 29°
2026-05-08 14:28 -33.06025 -68.50699 2190 ft 86 kts 22°
2026-05-08 14:28 -33.05465 -68.50356 2340 ft 95 kts 24°
2026-05-08 14:29 -33.04842 -68.49982 2476 ft 103 kts 24°
2026-05-08 14:29 -33.04236 -68.49513 2650 ft 105 kts 43°
2026-05-08 14:29 -33.03910 -68.48725 2805 ft 111 kts 77°
2026-05-08 14:29 -33.04068 -68.47817 2948 ft 119 kts 118°
2026-05-08 14:30 -33.04700 -68.47214 3168 ft 119 kts 158°
2026-05-08 14:30 -33.05543 -68.47208 3327 ft 122 kts 195°
2026-05-08 14:30 -33.06303 -68.47598 3540 ft 118 kts 210°
2026-05-08 14:30 -33.07024 -68.48119 3644 ft 124 kts 211°
2026-05-08 14:31 -33.07782 -68.48672 3780 ft 128 kts 216°
2026-05-08 14:31 -33.08424 -68.49407 3898 ft 131 kts 228°
2026-05-08 14:31 -33.09052 -68.50219 3991 ft 136 kts 229°
2026-05-08 14:32 -33.10442 -68.52007 3982 ft 153 kts 229°
2026-05-08 14:32 -33.11182 -68.52949 3975 ft 156 kts 228°
2026-05-08 14:32 -33.11923 -68.53894 3973 ft 157 kts 229°
2026-05-08 14:32 -33.12677 -68.54853 3975 ft 158 kts 229°
2026-05-08 14:33 -33.13434 -68.55818 3972 ft 161 kts 228°
2026-05-08 14:33 -33.14195 -68.56801 3969 ft 162 kts 229°
2026-05-08 14:33 -33.14972 -68.57800 3972 ft 163 kts 229°
2026-05-08 14:33 -33.15742 -68.58787 3972 ft 163 kts 228°
2026-05-08 14:34 -33.16521 -68.59767 3968 ft 164 kts 220°
2026-05-08 14:34 -33.17581 -68.60243 3981 ft 164 kts 193°
2026-05-08 14:34 -33.18684 -68.60688 3975 ft 166 kts 198°
2026-05-08 14:34 -33.19774 -68.61126 3974 ft 166 kts 198°
2026-05-08 14:35 -33.20871 -68.61564 3975 ft 167 kts 198°
2026-05-08 14:35 -33.21966 -68.62005 4068 ft 162 kts 198°
2026-05-08 14:35 -33.23028 -68.62431 4196 ft 159 kts 198°
2026-05-08 14:35 -33.24070 -68.62844 4320 ft 156 kts 198°
2026-05-08 14:36 -33.25095 -68.63248 4442 ft 154 kts 198°
2026-05-08 14:36 -33.26110 -68.63647 4564 ft 153 kts 198°
2026-05-08 14:36 -33.27105 -68.64039 4719 ft 149 kts 198°
2026-05-08 14:36 -33.28077 -68.64424 4884 ft 145 kts 198°
2026-05-08 14:37 -33.29026 -68.64804 5050 ft 142 kts 198°
2026-05-08 14:37 -33.29956 -68.65179 5214 ft 139 kts 198°
2026-05-08 14:37 -33.30864 -68.65546 5380 ft 137 kts 198°
2026-05-08 14:37 -33.31768 -68.65910 5550 ft 135 kts 198°
2026-05-08 14:38 -33.32645 -68.66255 5723 ft 133 kts 198°
2026-05-08 14:38 -33.33528 -68.66596 5892 ft 131 kts 198°
2026-05-08 14:38 -33.34404 -68.66936 5955 ft 139 kts 198°
2026-05-08 14:38 -33.35360 -68.67303 5956 ft 149 kts 198°
2026-05-08 14:39 -33.36365 -68.67690 5954 ft 153 kts 198°
2026-05-08 14:39 -33.37390 -68.68092 5951 ft 156 kts 198°
2026-05-08 14:39 -33.38421 -68.68498 5948 ft 158 kts 198°
2026-05-08 14:39 -33.39489 -68.68919 5947 ft 161 kts 198°
2026-05-08 14:40 -33.40568 -68.69336 5943 ft 164 kts 198°
2026-05-08 14:40 -33.41656 -68.69756 5942 ft 165 kts 198°
2026-05-08 14:40 -33.42749 -68.70180 5948 ft 166 kts 198°
2026-05-08 14:40 -33.43856 -68.70603 5944 ft 167 kts 198°
2026-05-08 14:41 -33.44970 -68.71025 5945 ft 168 kts 198°
2026-05-08 14:41 -33.46095 -68.71454 5942 ft 168 kts 198°
2026-05-08 14:41 -33.47203 -68.71869 5945 ft 168 kts 198°
2026-05-08 14:41 -33.48332 -68.72293 5943 ft 169 kts 198°
2026-05-08 14:42 -33.49460 -68.72727 5939 ft 170 kts 199°
2026-05-08 14:42 -33.50586 -68.73161 5938 ft 170 kts 199°
2026-05-08 14:42 -33.51711 -68.73595 5940 ft 171 kts 198°
2026-05-08 14:42 -33.52861 -68.74026 5940 ft 171 kts 198°
2026-05-08 14:43 -33.53991 -68.74455 5935 ft 171 kts 199°
2026-05-08 14:43 -33.55125 -68.74887 5933 ft 171 kts 198°
2026-05-08 14:43 -33.56274 -68.75327 5935 ft 171 kts 198°
2026-05-08 14:43 -33.57408 -68.75755 5936 ft 171 kts 199°
2026-05-08 14:44 -33.58538 -68.76186 5933 ft 171 kts 198°
2026-05-08 14:44 -33.59665 -68.76615 5935 ft 170 kts 198°
2026-05-08 14:44 -33.60810 -68.77052 5939 ft 171 kts 199°
2026-05-08 14:44 -33.61943 -68.77472 5934 ft 171 kts 198°
2026-05-08 14:45 -33.63083 -68.77898 5934 ft 171 kts 198°
2026-05-08 14:45 -33.64227 -68.78333 5928 ft 171 kts 198°
2026-05-08 14:45 -33.65355 -68.78762 5927 ft 171 kts 199°
2026-05-08 14:45 -33.66490 -68.79196 5926 ft 171 kts 198°
2026-05-08 14:46 -33.67627 -68.79632 5933 ft 171 kts 199°
2026-05-08 14:46 -33.68771 -68.80074 5924 ft 171 kts 198°
2026-05-08 14:46 -33.69896 -68.80511 5921 ft 170 kts 198°
2026-05-08 14:46 -33.71031 -68.80953 5925 ft 170 kts 198°
2026-05-08 14:47 -33.72163 -68.81384 5926 ft 171 kts 199°
2026-05-08 14:47 -33.73287 -68.81806 5926 ft 171 kts 198°
2026-05-08 14:47 -33.74432 -68.82234 5930 ft 171 kts 198°
2026-05-08 14:47 -33.75575 -68.82655 5933 ft 171 kts 198°
2026-05-08 14:48 -33.76723 -68.83077 5929 ft 172 kts 198°
2026-05-08 14:48 -33.77853 -68.83497 5926 ft 171 kts 198°
2026-05-08 14:48 -33.79007 -68.83929 5932 ft 171 kts 198°
2026-05-08 14:48 -33.80162 -68.84249 5932 ft 172 kts 193°
2026-05-08 14:49 -33.81352 -68.84569 5929 ft 173 kts 193°
2026-05-08 14:49 -33.82515 -68.84884 5932 ft 172 kts 193°
2026-05-08 14:49 -33.83689 -68.85187 5927 ft 172 kts 188°
2026-05-08 14:49 -33.84880 -68.85342 5928 ft 171 kts 187°
2026-05-08 14:50 -33.86079 -68.85494 5931 ft 171 kts 186°
2026-05-08 14:50 -33.87265 -68.85632 5925 ft 172 kts 186°
2026-05-08 14:50 -33.88450 -68.85775 5932 ft 172 kts 186°
2026-05-08 14:50 -33.89645 -68.85923 5931 ft 172 kts 186°
2026-05-08 14:51 -33.90798 -68.85652 5939 ft 169 kts 151°
2026-05-08 14:51 -33.91858 -68.85016 5933 ft 171 kts 150°
2026-05-08 14:51 -33.92925 -68.84364 5928 ft 172 kts 150°
2026-05-08 14:51 -33.94005 -68.83702 5926 ft 172 kts 150°
2026-05-08 14:52 -33.95068 -68.83046 5935 ft 172 kts 151°
2026-05-08 14:52 -33.97195 -68.81728 5924 ft 171 kts 150°
2026-05-08 14:52 -33.98259 -68.81079 5928 ft 172 kts 151°
2026-05-08 14:53 -33.99333 -68.80421 5922 ft 172 kts 150°
2026-05-08 14:53 -34.00400 -68.79771 5924 ft 172 kts 150°
2026-05-08 14:53 -34.01473 -68.79114 5926 ft 172 kts 150°
2026-05-08 14:53 -34.02544 -68.78453 5921 ft 173 kts 151°
2026-05-08 14:54 -34.03615 -68.77788 5923 ft 173 kts 150°
2026-05-08 14:54 -34.04683 -68.77116 5926 ft 173 kts 150°
2026-05-08 14:54 -34.05739 -68.76443 5918 ft 173 kts 150°
2026-05-08 14:54 -34.06801 -68.75766 5920 ft 172 kts 150°
2026-05-08 14:55 -34.07865 -68.75085 5915 ft 172 kts 151°
2026-05-08 14:55 -34.08926 -68.74399 5917 ft 172 kts 150°
2026-05-08 14:55 -34.09977 -68.73722 5920 ft 171 kts 150°
2026-05-08 14:55 -34.11037 -68.73047 5913 ft 171 kts 150°
2026-05-08 14:56 -34.12095 -68.72375 5921 ft 171 kts 150°
2026-05-08 14:56 -34.13138 -68.71713 5919 ft 171 kts 151°
2026-05-08 14:56 -34.14203 -68.71039 5917 ft 171 kts 151°
2026-05-08 14:56 -34.15262 -68.70367 5917 ft 171 kts 151°
2026-05-08 14:57 -34.16314 -68.69702 5910 ft 172 kts 150°
2026-05-08 14:57 -34.17367 -68.69035 5910 ft 171 kts 150°
2026-05-08 14:57 -34.18433 -68.68368 5882 ft 173 kts 151°
2026-05-08 14:57 -34.19507 -68.67690 5872 ft 173 kts 151°
2026-05-08 14:58 -34.20570 -68.67007 5866 ft 173 kts 151°
2026-05-08 14:58 -34.21625 -68.66325 5868 ft 173 kts 150°
2026-05-08 14:58 -34.22697 -68.65627 5829 ft 176 kts 150°
2026-05-08 14:58 -34.23795 -68.64908 5717 ft 182 kts 147°
2026-05-08 14:59 -34.24902 -68.64118 5604 ft 186 kts 147°
2026-05-08 14:59 -34.27168 -68.62513 5360 ft 191 kts 148°
2026-05-08 14:59 -34.28322 -68.61691 5239 ft 192 kts 148°
2026-05-08 15:00 -34.29460 -68.60878 5121 ft 192 kts 148°
2026-05-08 15:00 -34.30615 -68.60040 4959 ft 191 kts 148°
2026-05-08 15:00 -34.31672 -68.59084 4786 ft 189 kts 140°
2026-05-08 15:00 -34.32690 -68.58093 4610 ft 189 kts 140°
2026-05-08 15:01 -34.33722 -68.57094 4433 ft 189 kts 140°
2026-05-08 15:01 -34.34748 -68.56110 4258 ft 188 kts 140°
2026-05-08 15:01 -34.35857 -68.55263 4077 ft 189 kts 148°
2026-05-08 15:01 -34.36990 -68.54446 3904 ft 188 kts 148°
2026-05-08 15:02 -34.38110 -68.53642 3757 ft 186 kts 149°
2026-05-08 15:02 -34.39198 -68.52892 3790 ft 179 kts 149°
2026-05-08 15:02 -34.40271 -68.52111 3744 ft 179 kts 148°
2026-05-08 15:02 -34.41349 -68.51304 3642 ft 182 kts 147°
2026-05-08 15:03 -34.42421 -68.50490 3579 ft 182 kts 147°
2026-05-08 15:03 -34.43494 -68.49670 3519 ft 181 kts 147°
2026-05-08 15:03 -34.44545 -68.48861 3563 ft 176 kts 146°
2026-05-08 15:03 -34.45551 -68.48051 3645 ft 170 kts 145°
2026-05-08 15:04 -34.46510 -68.47257 3759 ft 164 kts 145°
2026-05-08 15:04 -34.47448 -68.46485 3828 ft 162 kts 146°
2026-05-08 15:04 -34.48388 -68.45736 3890 ft 161 kts 147°
2026-05-08 15:04 -34.49335 -68.45023 3933 ft 161 kts 148°
2026-05-08 15:05 -34.50298 -68.44299 3963 ft 162 kts 149°
2026-05-08 15:05 -34.51276 -68.43600 3991 ft 163 kts 153°
2026-05-08 15:05 -34.52348 -68.43171 4017 ft 159 kts 168°
2026-05-08 15:05 -34.53418 -68.43071 4037 ft 152 kts 185°
2026-05-08 15:06 -34.54456 -68.43280 3992 ft 152 kts 192°
2026-05-08 15:06 -34.55477 -68.43549 3891 ft 142 kts 193°
2026-05-08 15:06 -34.56316 -68.43748 3685 ft 105 kts 189°
2026-05-08 15:06 -34.56952 -68.43726 3490 ft 86 kts 170°
2026-05-08 15:07 -34.57509 -68.43499 3161 ft 85 kts 153°
2026-05-08 15:07 -34.57967 -68.43063 2847 ft 86 kts 126°
2026-05-08 15:07 -34.58223 -68.42406 2715 ft 83 kts 106°
2026-05-08 15:07 -34.58403 -68.41727 2556 ft 86 kts 107°
2026-05-08 15:08 -34.58572 -68.41113 2481 ft 64 kts 108°
2026-05-08 15:08 -34.58660 -68.40801 2473 ft 54 kts 109°
2026-05-08 15:08 -34.58796 -68.40300 2463 ft 39 kts 108°
2026-05-08 15:08 -34.58857 -68.40081 2459 ft 22 kts 105°
2026-05-08 15:09 -34.58958 -68.40040 2458 ft 16 kts 199°
2026-05-08 15:09 -34.59031 -68.40073 2461 ft 6 kts 204°
2026-05-08 15:09 -34.59061 -68.40105 2463 ft 5 kts 202°
2026-05-08 15:09 -34.59074 -68.40099 2463 ft 0 kts 116°